Location: Columbus
(35.2256°N, 82.1549°W)
Time: 17:29:19
(UTC-05:00)

ISS - Visible Passes

Search period start: 02 December 2021 00:00
Search period end: 12 December 2021 00:00
Orbit: 417 x 423 km, 51.6° (Epoch: 02 December)

Date Brightness Start Highest point End Pass type
(mag) Time Alt. Az. Time Alt. Az. Time Alt. Az.
03 Dec -1.1 19:01:51 10° NNW 19:02:10 12° NNW 19:02:10 12° NNW visible
04 Dec -1.7 18:15:10 10° N 18:17:04 14° NNE 18:17:16 14° NNE visible
05 Dec -2.2 19:03:43 10° NW 19:05:33 28° NNW 19:05:33 28° NNW visible
06 Dec -2.9 18:16:41 10° NNW 18:19:46 32° NE 18:21:06 23° ENE visible
06 Dec -0.3 19:53:49 10° WNW 19:54:09 12° W 19:54:09 12° W visible
07 Dec -2.4 19:06:09 10° WNW 19:09:20 39° SW 19:10:05 33° SSW visible
08 Dec -3.6 18:18:46 10° NW 18:22:10 76° SW 18:25:31 10° SE visible
09 Dec -0.4 19:10:11 10° WSW 19:11:21 11° SW 19:12:29 10° SW visible
10 Dec -0.9 18:21:40 10° W 18:24:16 21° SW 18:26:51 10° S visible
